Date,TemperatureHighF,TemperatureAvgF,TemperatureLowF,DewpointHighF,DewpointAvgF,DewpointLowF,HumidityHigh,HumidityAvg,HumidityLow,PressureMaxIn,PressureMinIn,WindSpeedMaxMPH,WindSpeedAvgMPH,GustSpeedMaxMPH,PrecipitationSumIn
2013-1-1,73,63,53,-100,-100,-100,0,0,100,0.00,40.00,7,1,9,0.00
2013-1-2,53,47,41,-100,-100,-100,0,0,100,0.00,40.00,4,0,5,0.00
2013-1-3,46,39,32,-100,-100,-100,0,0,100,0.00,40.00,3,0,6,0.00
2013-1-4,56,40,29,-100,-100,-100,0,0,100,0.00,40.00,4,0,5,0.00
2013-1-5,49,43,35,-100,-100,-100,0,0,100,0.00,40.00,0,0,2,0.00
2013-1-6,50,45,38,-100,-100,-100,0,0,100,0.00,40.00,2,0,5,0.00
2013-1-7,58,42,31,-100,-100,-100,0,0,100,0.00,40.00,1,0,3,0.00
2013-1-8,66,54,39,-100,-100,-100,0,0,100,0.00,40.00,0,0,2,0.00
2013-1-9,68,64,56,-100,-100,-100,0,0,100,0.00,40.00,0,0,2,0.00
2013-1-10,71,67,62,-100,-100,-100,0,0,100,0.00,40.00,3,0,7,0.00
2013-1-11,79,69,60,-100,-100,-100,0,0,100,0.00,40.00,7,1,10,0.00
2013-1-12,76,70,68,-100,-100,-100,0,0,100,0.00,40.00,5,1,7,0.00
2013-1-13,76,71,59,-100,-100,-100,0,0,100,0.00,40.00,7,2,11,0.00
2013-1-14,59,49,41,-100,-100,-100,0,0,100,0.00,40.00,3,0,8,0.00
2013-1-15,54,48,42,-100,-100,-100,0,0,100,0.00,40.00,1,0,5,0.00
2013-1-16,51,45,41,-100,-100,-100,0,0,100,0.00,40.00,2,0,5,0.00
2013-1-17,48,40,34,-100,-100,-100,0,0,100,0.00,40.00,5,1,9,0.00
2013-1-18,56,41,31,-100,-100,-100,0,0,100,0.00,40.00,4,0,6,0.00
2013-1-19,61,43,29,-100,-100,-100,0,0,100,0.00,40.00,1,0,3,0.00
2013-1-20,66,46,31,-100,-100,-100,0,0,100,0.00,40.00,3,0,5,0.00
2013-1-21,66,48,32,-100,-100,-100,0,0,100,0.00,40.00,5,0,6,0.00
2013-1-22,58,44,35,-100,-100,-100,0,0,100,0.00,40.00,2,0,4,0.00
2013-1-23,67,48,30,-100,-100,-100,0,0,100,0.00,40.00,0,0,4,0.00
2013-1-24,73,56,38,-100,-100,-100,0,0,100,0.00,40.00,3,0,5,0.00
2013-1-25,71,57,44,-100,-100,-100,0,0,100,0.00,40.00,7,1,9,0.00
2013-1-26,69,57,49,-100,-100,-100,0,0,100,0.00,40.00,2,0,2,0.00
2013-1-27,71,56,42,-100,-100,-100,0,0,100,0.00,40.00,3,0,5,0.00
2013-1-28,76,62,49,-100,-100,-100,0,0,100,0.00,40.00,4,0,6,0.00
2013-1-29,76,70,65,-100,-100,-100,0,0,100,0.00,40.00,6,1,8,0.00
2013-1-30,73,60,42,-100,-100,-100,0,0,100,0.00,40.00,8,2,12,0.00
2013-1-31,49,39,32,-100,-100,-100,0,0,100,0.00,40.00,0,0,2,0.00